{"data":{"norad_id":68398,"intl_designator":"2026-063U","name":"STARLINK-37220","alt_names":[],"object_type":"PAYLOAD","status":"ACTIVE","operator":null,"country":"US","launch_date":"2026-03-26","launch_site_code":"AFWTR","launch_vehicle":null,"mission":null,"orbit_class":"UNKNOWN","rcs_meters":null,"size_class":null,"mass_kg":null,"dimensions":null,"purposes":["comms"],"wikipedia_slug":null,"has_3d_model":false,"image_url":null,"decayed_at":null,"tle_current":{"epoch":"2026-09-20T03:34:19.464096Z","epoch_age_seconds":78023,"freshness":"FRESH","line1":"1 68398U 26063U   26263.14883639  .00015379  00000+0  47748-3 0  9999","line2":"2 68398  97.2865  43.9989 0000983 284.9416  75.1717 15.33461678 27695","mean_motion":15.33461678,"eccentricity":9.83e-5,"inclination_deg":97.2865,"raan_deg":43.9989,"arg_perigee_deg":284.9416,"mean_anomaly_deg":75.1717,"bstar":0.00047748,"rev_number":2769,"period_min":93.905183328618,"perigee_km":464.82082405049,"apogee_km":466.1662818172,"semimajor_km":6843.6305529338,"source":"CELESTRAK","updated_at":"2026-09-20T09:00:43.897951Z"}}}